Hourly Weather Bolshoe Ovsyanikovo

Today, 30 July, Friday

Time Temperature Precipitation Wind Pressure Humidity
00:00 +17°C° 0 mm 2 mps 740 mmHg 91%
01:00 +17°C° 0 mm 2 mps 740 mmHg 94%
02:00 +16°C° 0 mm 2 mps 740 mmHg 96%
03:00 +17°C° 0 mm 2 mps 740 mmHg 95%
04:00 +17°C° 0 mm 2 mps 740 mmHg 93%
05:00 +18°C° 0 mm 2 mps 740 mmHg 92%
06:00 +20°C° 0 mm 2 mps 740 mmHg 80%
07:00 +23°C° 0 mm 2 mps 740 mmHg 69%
08:00 +25°C° 0 mm 2 mps 740 mmHg 57%
09:00 +26°C° 0 mm 3 mps 740 mmHg 52%
10:00 +27°C° 0 mm 3 mps 740 mmHg 46%
11:00 +29°C° 0 mm 3 mps 740 mmHg 40%
12:00 +27°C° 0.1 mm 3 mps 740 mmHg 50%
13:00 +25°C° 0.1 mm 3 mps 740 mmHg 59%
14:00 +22°C° 0.1 mm 3 mps 740 mmHg 69%
15:00 +21°C° 0.3 mm 3 mps 740 mmHg 73%
16:00 +21°C° 0.3 mm 2 mps 739 mmHg 78%
17:00 +20°C° 0.3 mm 2 mps 739 mmHg 82%
18:00 +20°C° 0.4 mm 2 mps 739 mmHg 84%
19:00 +19°C° 0.4 mm 2 mps 739 mmHg 87%
20:00 +18°C° 0.4 mm 2 mps 739 mmHg 89%
21:00 +17°C° 0.1 mm 2 mps 739 mmHg 90%
22:00 +17°C° 0.1 mm 2 mps 739 mmHg 91%
23:00 +16°C° 0.1 mm 2 mps 739 mmHg 92%

Tomorrow, 31 July, Saturday

Time Temperature Precipitation Wind Pressure Humidity
00:00 +16°C° 0 mm 2 mps 739 mmHg 92%
01:00 +15°C° 0 mm 2 mps 739 mmHg 92%
02:00 +15°C° 0 mm 2 mps 738 mmHg 92%
03:00 +15°C° 0 mm 2 mps 738 mmHg 92%
04:00 +15°C° 0 mm 2 mps 738 mmHg 92%
05:00 +15°C° 0 mm 2 mps 738 mmHg 92%
06:00 +17°C° 0 mm 3 mps 737 mmHg 80%
07:00 +19°C° 0 mm 4 mps 737 mmHg 68%
08:00 +20°C° 0 mm 5 mps 737 mmHg 57%
09:00 +20°C° 0.2 mm 5 mps 737 mmHg 58%
10:00 +20°C° 0.2 mm 5 mps 737 mmHg 59%
11:00 +20°C° 0.2 mm 6 mps 738 mmHg 61%
12:00 +21°C° 0 mm 6 mps 737 mmHg 56%
13:00 +21°C° 0 mm 6 mps 737 mmHg 52%
14:00 +22°C° 0 mm 6 mps 737 mmHg 47%
15:00 +21°C° 0 mm 6 mps 738 mmHg 51%
16:00 +21°C° 0 mm 6 mps 738 mmHg 55%
17:00 +21°C° 0 mm 5 mps 739 mmHg 58%
18:00 +20°C° 0 mm 5 mps 739 mmHg 63%
19:00 +19°C° 0 mm 4 mps 740 mmHg 68%
20:00 +18°C° 0 mm 3 mps 740 mmHg 73%
21:00 +17°C° 0 mm 3 mps 740 mmHg 78%
22:00 +16°C° 0 mm 3 mps 741 mmHg 83%
23:00 +15°C° 0 mm 2 mps 741 mmHg 87%

Day after tomorrow, 1 August, Sunday

Time Temperature Precipitation Wind Pressure Humidity
00:00 +14°C° 0 mm 2 mps 742 mmHg 88%
01:00 +14°C° 0 mm 2 mps 742 mmHg 89%
02:00 +14°C° 0 mm 2 mps 742 mmHg 90%
03:00 +14°C° 0 mm 2 mps 743 mmHg 90%
04:00 +15°C° 0 mm 2 mps 743 mmHg 90%
05:00 +15°C° 0 mm 2 mps 743 mmHg 90%
06:00 +18°C° 0 mm 2 mps 743 mmHg 81%
07:00 +20°C° 0 mm 3 mps 743 mmHg 71%
08:00 +22°C° 0 mm 3 mps 743 mmHg 61%
09:00 +23°C° 0.1 mm 4 mps 743 mmHg 58%
10:00 +25°C° 0.1 mm 4 mps 743 mmHg 54%
11:00 +27°C° 0.1 mm 5 mps 743 mmHg 50%
12:00 +26°C° 0.2 mm 5 mps 743 mmHg 51%
13:00 +26°C° 0.2 mm 5 mps 742 mmHg 51%
14:00 +25°C° 0.2 mm 5 mps 742 mmHg 52%
15:00 +23°C° 0.1 mm 4 mps 742 mmHg 60%
16:00 +21°C° 0.1 mm 4 mps 742 mmHg 68%
17:00 +20°C° 0.1 mm 4 mps 742 mmHg 77%
18:00 +19°C° 0 mm 3 mps 742 mmHg 81%
19:00 +19°C° 0 mm 3 mps 742 mmHg 86%
20:00 +18°C° 0 mm 2 mps 742 mmHg 91%
21:00 +18°C° 0 mm 2 mps 742 mmHg 93%
22:00 +17°C° 0 mm 2 mps 742 mmHg 95%
23:00 +16°C° 0 mm 2 mps 742 mmHg 97%

2 August, Monday

Time Temperature Precipitation Wind Pressure Humidity
00:00 +16°C° 0 mm 2 mps 743 mmHg 97%
01:00 +16°C° 0 mm 2 mps 743 mmHg 97%
02:00 +16°C° 0 mm 2 mps 743 mmHg 97%
03:00 +16°C° 0 mm 2 mps 743 mmHg 96%
04:00 +16°C° 0 mm 2 mps 743 mmHg 94%
05:00 +18°C° 0 mm 1 mps 743 mmHg 93%
06:00 +20°C° 0 mm 1 mps 743 mmHg 83%
07:00 +22°C° 0 mm 1 mps 743 mmHg 72%
08:00 +24°C° 0 mm 1 mps 743 mmHg 62%
09:00 +25°C° 0 mm 2 mps 743 mmHg 57%
10:00 +26°C° 0 mm 2 mps 742 mmHg 52%
11:00 +27°C° 0 mm 2 mps 742 mmHg 47%
12:00 +27°C° 0 mm 2 mps 742 mmHg 45%
13:00 +28°C° 0 mm 2 mps 741 mmHg 43%
14:00 +28°C° 0 mm 2 mps 741 mmHg 41%
15:00 +27°C° 0 mm 2 mps 740 mmHg 48%
16:00 +26°C° 0 mm 2 mps 739 mmHg 56%
17:00 +25°C° 0 mm 2 mps 739 mmHg 63%
18:00 +23°C° 0.5 mm 2 mps 738 mmHg 73%
19:00 +20°C° 0.5 mm 2 mps 738 mmHg 83%
20:00 +19°C° 0.5 mm 2 mps 737 mmHg 93%
21:00 +18°C° 0.1 mm 2 mps 737 mmHg 94%
22:00 +18°C° 0.1 mm 2 mps 737 mmHg 95%
23:00 +18°C° 0.1 mm 2 mps 736 mmHg 96%

3 August, Tuesday

Time Temperature Precipitation Wind Pressure Humidity
00:00 +18°C° 0.1 mm 2 mps 736 mmHg 96%
01:00 +17°C° 0.1 mm 3 mps 736 mmHg 97%
02:00 +17°C° 0.1 mm 3 mps 736 mmHg 98%
03:00 +17°C° 0.5 mm 4 mps 736 mmHg 97%
04:00 +16°C° 0.5 mm 5 mps 737 mmHg 96%
05:00 +15°C° 0.5 mm 6 mps 737 mmHg 95%
06:00 +16°C° 0 mm 5 mps 738 mmHg 90%
07:00 +17°C° 0 mm 5 mps 739 mmHg 85%
08:00 +19°C° 0 mm 5 mps 739 mmHg 79%
09:00 +20°C° 0.2 mm 5 mps 740 mmHg 73%
10:00 +21°C° 0.2 mm 5 mps 740 mmHg 66%
11:00 +22°C° 0.2 mm 5 mps 741 mmHg 60%
12:00 +23°C° 0.1 mm 5 mps 741 mmHg 54%
13:00 +23°C° 0.1 mm 5 mps 741 mmHg 48%
14:00 +25°C° 0.1 mm 4 mps 742 mmHg 42%
15:00 +23°C° 0 mm 4 mps 742 mmHg 46%
16:00 +22°C° 0 mm 4 mps 742 mmHg 50%
17:00 +21°C° 0 mm 4 mps 743 mmHg 54%
18:00 +20°C° 0 mm 4 mps 743 mmHg 61%
19:00 +18°C° 0 mm 3 mps 744 mmHg 68%
20:00 +17°C° 0 mm 3 mps 745 mmHg 76%
21:00 +16°C° 0 mm 3 mps 745 mmHg 82%
22:00 +15°C° 0 mm 2 mps 745 mmHg 88%
23:00 +14°C° 0 mm 2 mps 746 mmHg 95%

4 August, Wednesday

Time Temperature Precipitation Wind Pressure Humidity
00:00 +13°C° 0 mm 2 mps 746 mmHg 95%
01:00 +12°C° 0 mm 2 mps 747 mmHg 96%
02:00 +10°C° 0 mm 2 mps 748 mmHg 97%
03:00 +10°C° 0 mm 2 mps 748 mmHg 95%
04:00 +11°C° 0 mm 1 mps 748 mmHg 92%
05:00 +11°C° 0 mm 1 mps 749 mmHg 89%
06:00 +13°C° 0 mm 1 mps 749 mmHg 77%
07:00 +16°C° 0 mm 2 mps 750 mmHg 65%
08:00 +18°C° 0 mm 2 mps 750 mmHg 53%
09:00 +19°C° 0 mm 2 mps 750 mmHg 48%
10:00 +20°C° 0 mm 2 mps 750 mmHg 42%
11:00 +22°C° 0 mm 1 mps 750 mmHg 36%
12:00 +23°C° 0 mm 1 mps 750 mmHg 34%
13:00 +24°C° 0 mm 1 mps 750 mmHg 32%
14:00 +24°C° 0 mm 1 mps 750 mmHg 30%
15:00 +24°C° 0 mm 1 mps 750 mmHg 32%
16:00 +24°C° 0 mm 1 mps 750 mmHg 33%
17:00 +23°C° 0 mm 1 mps 750 mmHg 35%
18:00 +21°C° 0 mm 1 mps 750 mmHg 42%
19:00 +19°C° 0 mm 1 mps 751 mmHg 48%
20:00 +16°C° 0 mm 1 mps 751 mmHg 55%
21:00 +15°C° 0 mm 1 mps 751 mmHg 57%
22:00 +14°C° 0 mm 1 mps 751 mmHg 60%
23:00 +13°C° 0 mm 1 mps 751 mmHg 62%
Show more

We Need Your Consent

Meteoprog and our Service Providers may store and access personal data such as cookies, device identifiers or other similar technologies on your device and process such data to personalise content and ads, as well as provide social media features and to analyse the traffic.

  • Store and/or access information on your device

    Cookies, device identifiers or other information can be stored or accessed on your device for the purposes indicated above.

  • Personalised ads and content, ad and content measurement, audience insights, and products development

    Ads and content can be personalised based on a profile. More data can be added to better personalise ads and content. Ad and content performance can be measured. Insights about the audience who saw the ads and content can be derived. Such data can be used to develop or improve user’s experience, systems and software.

By clicking ‘I Agree’ you will allow the use of indicated cookies, device identifiers, web beacons or other similar technologies. Your settings can be changed in the browser on your device.

For certain purposes, legitimate interests may be relied on, rather than consent. You can read more about this in our Privacy and Cookie Policy.